EW1994 Weather Reports


Display with metric or nautical units.
time (UTC)temp
F
wind
direction
speed
MPH
gust
MPH
rain 1hr
in
rain 24hr
in
rain mn
in
humidity
%
barometer
mb
20171017203024 50 135 0.0 2.0 0.00 0.01 0.01 73 1018.4
20171017201145 50 77 0.0 1.0 0.00 0.01 0.01 72 1017.9
20171017195451 50 77 0.0 0.0 0.00 0.02 0.01 72 1017.7
20171017193755 50 77 0.0 1.0 0.00 0.02 0.01 73 1017.5
20171017191954 50 77 0.0 0.0 0.00 0.02 0.01 72 1017.4
20171017190258 49 77 0.0 0.0 0.00 0.02 0.01 73 1017.3
20171017184552 49 77 0.0 2.0 0.00 0.02 0.01 74 1016.7
20171017182805 49 77 0.0 2.0 0.00 0.02 0.01 74 1016.4
20171017181121 50 25 0.0 2.0 0.00 0.02 0.01 76 1016.2
20171017175359 51 131 1.0 6.0 0.00 0.02 0.01 75 1015.7
20171017173627 52 57 0.0 2.0 0.00 0.02 0.01 77 1014.9
20171017171822 52 105 0.0 3.0 0.00 0.02 0.01 79 1014.2
20171017170133 52 180 0.0 8.0 0.00 0.02 0.01 79 1013.8
20171017164341 52 274 0.0 2.0 0.00 0.02 0.01 77 1013.3
20171017162622 52 274 0.0 2.0 0.00 0.02 0.01 82 1012.7
20171017160942 52 196 1.0 5.0 0.00 0.02 0.01 84 1012.1
20171017155132 52 150 5.0 12.0 0.00 0.02 0.01 85 1012.0
20171017153457 51 149 3.0 9.0 0.00 0.02 0.01 81 1012.0
20171017151637 51 151 3.0 11.0 0.00 0.02 0.01 82 1011.8
20171017145950 52 163 1.0 5.0 0.00 0.02 0.01 85 1011.9
20171017144154 53 110 0.0 5.0 0.00 0.02 0.01 84 1012.8
20171017142459 53 159 2.0 11.0 0.00 0.02 0.01 84 1012.9
20171017140650 53 218 2.0 9.0 0.00 0.02 0.01 84 1013.3
20171017135027 52 184 2.0 9.0 0.00 0.02 0.01 85 1013.1
20171017133211 52 175 0.0 5.0 0.00 0.02 0.01 85 1013.2
20171017131532 52 90 2.0 7.0 0.01 0.02 0.01 85 1013.7
20171017125714 52 141 1.0 7.0 0.01 0.02 0.01 85 1013.7
20171017124018 52 172 1.0 9.0 0.01 0.02 0.01 85 1013.9
20171017122212 52 150 4.0 13.0 0.01 0.02 0.01 85 1014.2
20171017120537 52 245 1.0 10.0 0.00 0.01 0.00 85 1014.3
20171017114716 52 161 0.0 3.0 0.00 0.01 0.00 85 1014.3
20171017113105 52 283 0.0 5.0 0.00 0.01 0.00 85 1014.6
20171017111354 52 177 0.0 5.0 0.00 0.01 0.00 85 1014.8
20171017105553 52 162 1.0 7.0 0.00 0.01 0.00 84 1014.9
20171017103905 53 153 2.0 8.0 0.00 0.01 0.00 84 1015.2
20171017102107 53 144 1.0 7.0 0.00 0.01 0.00 84 1015.4
20171017100419 53 207 1.0 5.0 0.00 0.01 0.00 84 1015.7
20171017094621 54 165 1.0 5.0 0.00 0.01 0.00 83 1015.9
20171017092853 54 360 0.0 6.0 0.00 0.01 0.00 82 1016.1
20171017091205 55 238 1.0 10.0 0.00 0.01 0.00 82 1016.2
20171017085400 54 146 3.0 10.0 0.00 0.01 0.00 83 1016.4
20171017083731 53 130 1.0 4.0 0.00 0.01 0.00 85 1016.5
20171017081932 52 158 1.0 9.0 0.00 0.01 0.00 86 1016.5
20171017080228 51 292 0.0 1.0 0.00 0.01 0.00 85 1016.7
20171017074431 52 224 0.0 0.0 0.00 0.01 0.00 86 1016.8
20171017072807 53 269 0.0 2.0 0.00 0.01 0.00 85 1016.9
20171017071000 53 167 0.0 4.0 0.00 0.01 0.00 85 1017.0
20171017065324 53 155 0.0 5.0 0.00 0.01 0.01 86 1017.3
20171017063509 52 242 1.0 10.0 0.00 0.01 0.01 86 1017.5
20171017061819 51 175 1.0 5.0 0.00 0.01 0.01 85 1017.8
20171017060032 50 205 0.0 2.0 0.00 0.01 0.01 82 1017.8
20171017054321 50 183 0.0 0.0 0.00 0.01 0.01 79 1017.9
20171017052626 50 182 0.0 0.0 0.00 0.01 0.01 80 1018.2
20171017050840 50 182 0.0 0.0 0.00 0.01 0.01 82 1018.1
20171017045151 50 194 0.0 0.0 0.00 0.01 0.01 83 1018.2
20171017043353 51 194 0.0 0.0 0.00 0.01 0.01 85 1018.3
20171017041557 52 194 0.0 0.0 0.00 0.01 0.01 85 1018.5
20171017035855 53 194 0.0 0.0 0.00 0.01 0.01 86 1018.5
20171017034113 54 194 0.0 0.0 0.00 0.01 0.01 85 1018.7
20171017032653 54 194 0.0 2.0 0.00 0.01 0.01 85 1019.1
20171017030826 55 190 0.0 1.0 0.00 0.01 0.01 84 1019.2
20171017024934 54 117 0.0 3.0 0.00 0.01 0.01 84 1019.2
20171017023232 54 97 0.0 1.0 0.00 0.01 0.01 85 1019.4
20171017021428 54 99 0.0 2.0 0.00 0.01 0.01 85 1019.5
20171017015747 55 144 0.0 0.0 0.00 0.01 0.01 85 1019.8
20171017013958 55 144 0.0 0.0 0.00 0.01 0.01 85 1020.0
20171017012306 56 144 0.0 0.0 0.00 0.01 0.01 83 1020.0
20171017010449 57 144 0.0 0.0 0.00 0.01 0.01 80 1020.2
20171017004810 57 144 0.0 3.0 0.00 0.01 0.01 77 1020.4
20171017002317 58 144 2.0 7.0 0.00 0.01 0.01 73 1020.7
20171017000207 59 159 1.0 6.0 0.00 0.01 0.01 72 1020.7
20171016234216 60 218 2.0 8.0 0.00 0.01 0.01 70 1021.0
20171016232119 60 42 0.0 9.0 0.00 0.01 0.01 73 1021.2
20171016230327 59 129 1.0 4.0 0.00 0.01 0.01 72 1021.3
20171016224636 59 148 0.0 1.0 0.00 0.01 0.01 80 1021.3
20171016222828 60 148 1.0 9.0 0.00 0.01 0.01 69 1021.3
20171016221153 60 159 0.0 7.0 0.00 0.01 0.01 71 1021.0
20171016215350 61 173 0.0 8.0 0.00 0.01 0.01 70 1021.2
20171016213702 61 246 0.0 8.0 0.00 0.01 0.01 66 1021.3
20171016211933 63 270 2.0 9.0 0.00 0.01 0.01 62 1021.3
20171016210123 62 261 2.0 9.0 0.00 0.01 0.01 64 1021.2
20171016204434 63 247 1.0 7.0 0.00 0.01 0.01 64 1021.5